Regional Weather Roundup
Issued by NWS Charleston, SC

Current Version | Previous Version | Graphics & Text | Print | Product List | Glossary On
Versions: 1 2 3 4 5 6 7 8 9 10 11 12 13 14 15 16 17 18 19 20 21 22 23 24 25 26 27 28 29 30 31 32 33 34 35 36 37 38 39 40 41 42 43 44 45 46 47 48 49 50
737
ASUS42 KCHS 030428
RWRCHS

REGIONAL WEATHER ROUNDUP
NATIONAL WEATHER SERVICE CHARLESTON SC
1200 AM EDT TUE MAY 03 2016

NOTE: "FAIR" INDICATES FEW OR NO CLOUDS BELOW 12,000 FEET WITH NO
SIGNIFICANT WEATHER AND/OR OBSTRUCTIONS TO VISIBILITY.

NOT ALL STATIONS ARE QUALITY CONTROLLED. USE DATA WITH CAUTION...
ESPECIALLY DEWPOINT OBSERVATIONS.

SCZ027-030-031-034>040-042>050-030500-
...SOUTHEAST SOUTH CAROLINA...

CITY           SKY/WX    TMP DP  RH WIND       PRES   REMARKS
N CHARLESTON   CLOUDY    75  72  90 S9        29.96F
WATERFRONT PRK   N/A     75  73  93 S7        29.97F
MOUNT PLEASANT FAIR      73  73 100 SE6       29.96F
JOHNS ISLAND   FAIR      75  73  94 S7        29.97F
PINOPOLIS        N/A     75  72  88 CALM      29.91F
MONCKS CORNER  MOCLDY    70  66  88 S6        29.95F FOG
SUMMERVILLE    FAIR      73  73 100 S3        29.96F
BEAUFORT MCAS  CLOUDY    72  71  97 S9G18     29.96F THUNDER
BEAUFORT ARPT  LGT RAIN  72  70  94 S8G20     29.97F
HILTON HEAD IS MOCLDY    72  72 100 CALM      29.99F
WALTERBORO     CLOUDY    73  73 100 S8        29.96F
ALLENDALE      MOCLDY    70  68  94 S3        29.94S

...SOUTHERN MIDLANDS AND PEE DEE...

CITY           SKY/WX    TMP DP  RH WIND       PRES   REMARKS
GEORGETOWN     MOCLDY    72  70  94 S3        29.98F
KINGSTREE      MOCLDY    70  68  94 SE8       29.94F
ORANGEBURG     CLOUDY    69  68  96 SW5       29.95F
BARNWELL       FAIR      70  70 100 CALM      29.95F
AIKEN          CLOUDY    66  64  94 NW3       30.00S
MANNING        MOCLDY    70  68  94 SE5       29.94F
COLUMBIA       CLOUDY    69  66  90 CALM      29.93F
SUMTER         CLOUDY    68  66  92 S6        29.92F
FLORENCE       CLOUDY    71  69  93 S6        29.95F
MYRTLE BEACH   CLOUDY    73  66  78 S8        29.99F
N MYRTLE BEACH LGT RAIN  73  70  90 SW8       29.98F

$$

GAZ063-065-086>088-099>101-113>116-118-119-134>141-150-030500-
...SOUTHEAST GEORGIA...

CITY           SKY/WX    TMP DP  RH WIND       PRES   REMARKS
SAVANNAH ARPT  CLOUDY    73  71  93 E7        29.97F
HUNTER AAF     PTCLDY    74  74 100 SE2       29.95F
FORT STEWART   CLOUDY    71  69  95 CALM      29.94F
STATESBORO     CLOUDY    73  73 100 S5        29.95F
SYLVANIA       MOCLDY    71  70  98 S3        29.96S
CLAXTON        FAIR      70  70 100 CALM      29.96S FOG

...CSRA...CENTRAL AND FAR SOUTHEAST GEORGIA...

CITY           SKY/WX    TMP DP  RH WIND       PRES   REMARKS
THOMSON        NOT AVBL
AUGUSTA-BUSH   CLOUDY    69  68  96 CALM      29.95S
AUGUSTA-DANIEL LGT RAIN  71  66  84 CALM      29.96S
SWAINSBORO     MOCLDY    70  68  94 S5        29.95F
VIDALIA        MOCLDY    70  68  94 S5        29.95F
EASTMAN        MOCLDY   N/A N/A N/A CALM      29.97F
HAZLEHURST     FAIR      72  72 100 CALM      29.94F
ALMA           CLOUDY    71  70  96 CALM      29.95F
WAYCROSS       CLOUDY    72  71  96 S3        29.96F
JESUP          FAIR      73  72  94 CALM      29.96F
BAXLEY         FAIR      72  72 100 CALM      29.95F
BRUNSWICK      PTCLDY    79  73  83 S7        29.98S
SAINT SIMONS   CLOUDY    76  73  91 S12       29.97F

$$

SCZ027-028-034-036>038-045-046-048>050-GAZ119-141-030500-
...LAKE AND SUPPLEMENTAL COASTAL OBSERVATIONS...

STATION/POSITION TIME  TEMP    WIND        PRES    WAVE   SWELL
                       AIR SEA DIR/SP/G            HT/PER HT/PER/DIR
                 (UTC) (F)     (DEG/KT/KT) (MB)    (FT/S) (FT/S/D)
WINYAH BAY       0345   74     210/  6     1015.0S
LAKE MURRAY      0400   70     200/ 12/ 14 1013.2F
ACE BASIN NERRS  0300   74        CALM     1016.0S
FORT PULASKI     0400   75 75  150/  4/  6 1015.3F
SAPELO ISLAND    0400   76     170/ 12     1015.0S

$$

ANZ835-935-AMZ111-154-330-350-352-354-370-450-454-472-030500-
...C-MAN AND BUOY OBSERVATIONS...

STATION/POSITION TIME  TEMP    WIND        PRES    WAVE   SWELL
                       AIR SEA DIR/SP/G            HT/PER HT/PER/DIR
                 (UTC) (F)     (DEG/KT/KT) (MB)    (FT/S) (FT/S/D)
BUOY 41004       0350   76 74  210/  6/  8 1015.3F   3/ 9   2/ 9
BUOY 41008       NOT AVBL
FOLLY BEACH CMAN 0400   74     170/  6/  8 1015.2F
CAPERS NEARSHORE 0408   74 75  190/  6/ 10 1014.9F
FRIPP NEARSHORE  0408   74 74  240/ 10/ 16 1014.6F


STATION/POSITION TIME  TEMP    WIND        PRES    WAVE   SWELL
                       AIR SEA DIR/SP/G            HT/PER HT/PER/DIR
                 (UTC) (F)     (DEG/KT/KT) (MB)    (FT/S) (FT/S/D)
5E ST. MARYS GA  0321      74                N/A     3/ 5
FRYING PAN BUOY  0400   74 73  150/ 17/ 23 1015.5F
BUOY 41025       0350   74 74  220/ 16/ 17 1014.8F   4/10   2/ 80/10
CAPE LOOKOUT NC  0400   72     210/ 11/ 14 1014.8F
BUOY 41002       0350   74 74  160/ 16/ 17 1019.1F   4/10   3/ 30/10
BUOY 41010       0320   78 79  150/ 16/ 19 1017.5R
ST AUGUSTINE FL  0400   75 75  190/  9/ 10 1016.2F


$$




USA.gov is the U.S. government's official web portal to all federal, state and local government web resources and services.